Year,Month,Day,Hour,Minute,Value (Times are PST for temperature in C)
2008,07,14,00,00,11.80
2008,07,14,00,01,11.80
2008,07,14,00,02,11.80
2008,07,14,00,03,11.80
2008,07,14,00,04,11.80
2008,07,14,00,05,11.80
2008,07,14,00,06,11.80
2008,07,14,00,07,11.80
2008,07,14,00,08,11.80
2008,07,14,00,09,11.80
2008,07,14,00,10,11.80
2008,07,14,00,11,11.80
2008,07,14,00,12,11.80
2008,07,14,00,13,11.80
2008,07,14,00,14,11.70
2008,07,14,00,15,11.70
2008,07,14,00,16,11.70
2008,07,14,03,02,12.70
2008,07,14,03,03,12.60
2008,07,14,03,04,12.60
2008,07,14,03,05,12.50
2008,07,14,03,06,12.50
2008,07,14,03,07,12.50
2008,07,14,03,08,12.40
2008,07,14,03,09,12.40
2008,07,14,03,10,12.40
2008,07,14,03,11,12.40
2008,07,14,03,12,12.40
2008,07,14,03,13,12.30
2008,07,14,03,14,12.30
2008,07,14,03,15,12.30
2008,07,14,03,16,12.30
2008,07,14,03,17,12.30
2008,07,14,03,18,12.30
2008,07,14,03,19,12.30
2008,07,14,03,20,12.30
2008,07,14,03,21,12.30
2008,07,14,03,22,12.30
2008,07,14,03,23,12.30
2008,07,14,03,24,12.30
2008,07,14,03,25,12.30
2008,07,14,03,26,12.30
2008,07,14,03,27,12.30
2008,07,14,03,28,12.30
2008,07,14,03,29,12.30
2008,07,14,03,30,12.30
2008,07,14,03,31,12.30
2008,07,14,03,32,12.30
2008,07,14,03,33,12.20
2008,07,14,03,34,12.20
2008,07,14,03,35,12.20
2008,07,14,03,36,12.20
2008,07,14,03,37,12.20
2008,07,14,03,38,12.10
2008,07,14,03,39,12.10
2008,07,14,03,40,12.10
2008,07,14,03,41,12.10
2008,07,14,03,42,12.10
2008,07,14,03,43,12.10
2008,07,14,03,44,12.10
2008,07,14,03,45,12.10
2008,07,14,03,46,12.10
2008,07,14,03,47,12.10
2008,07,14,03,48,12.10
2008,07,14,03,49,12.10
2008,07,14,03,50,12.10
2008,07,14,03,51,12.10
2008,07,14,03,52,12.10
2008,07,14,03,53,12.10
2008,07,14,03,54,12.10
2008,07,14,03,55,12.10
2008,07,14,03,56,12.00
2008,07,14,03,57,12.00
2008,07,14,03,58,12.00
2008,07,14,03,59,12.00
2008,07,14,04,00,11.90
2008,07,14,04,01,11.90
2008,07,14,04,02,11.90
2008,07,14,04,03,11.80
2008,07,14,04,04,11.80
2008,07,14,04,05,11.80
2008,07,14,04,06,11.80
2008,07,14,04,07,11.80
2008,07,14,04,08,11.70
2008,07,14,04,09,11.70
2008,07,14,04,10,11.70
2008,07,14,04,11,11.60
2008,07,14,04,12,11.60
2008,07,14,04,13,11.60
2008,07,14,04,14,11.60
2008,07,14,04,15,11.60
2008,07,14,04,16,11.60
2008,07,14,04,17,11.70
2008,07,14,04,18,11.70
2008,07,14,04,19,11.80
2008,07,14,04,20,11.80
2008,07,14,04,21,11.80
2008,07,14,04,22,11.80
2008,07,14,04,23,11.80
2008,07,14,04,24,11.80
2008,07,14,04,25,11.80
2008,07,14,04,26,11.80
2008,07,14,04,27,11.80
2008,07,14,04,28,11.80
2008,07,14,04,29,11.80
2008,07,14,04,30,11.80
2008,07,14,04,31,11.80
2008,07,14,04,32,11.80
2008,07,14,04,33,11.80
2008,07,14,04,34,11.80
2008,07,14,04,35,11.80
2008,07,14,04,36,11.80
2008,07,14,04,37,11.80
2008,07,14,04,38,11.70
2008,07,14,04,39,11.70
2008,07,14,04,40,11.70
2008,07,14,04,41,11.70
2008,07,14,04,42,11.70
2008,07,14,04,43,11.70
2008,07,14,04,44,11.70
2008,07,14,04,45,11.70
2008,07,14,04,46,11.70
2008,07,14,04,47,11.60
2008,07,14,04,48,11.70
2008,07,14,04,49,11.70
2008,07,14,04,50,11.60
2008,07,14,04,51,11.60
2008,07,14,04,52,11.60
2008,07,14,04,53,11.60
2008,07,14,04,54,11.60
2008,07,14,04,55,11.60
2008,07,14,04,56,11.60
2008,07,14,04,57,11.70
2008,07,14,04,58,11.70
2008,07,14,04,59,11.70
2008,07,14,05,00,11.70
2008,07,14,05,01,11.70
2008,07,14,05,02,11.70
2008,07,14,05,03,11.80
2008,07,14,05,04,11.80
2008,07,14,05,05,11.80
2008,07,14,05,06,11.80
2008,07,14,05,07,11.80
2008,07,14,05,08,11.80
2008,07,14,05,09,11.80
2008,07,14,05,10,11.70
2008,07,14,05,11,11.70
2008,07,14,05,12,11.60
2008,07,14,05,13,11.60
2008,07,14,05,14,11.60
2008,07,14,05,15,11.60
2008,07,14,05,16,11.60
2008,07,14,05,17,11.40
2008,07,14,05,18,11.40
2008,07,14,05,19,11.40
2008,07,14,05,20,11.40
2008,07,14,05,21,11.40
2008,07,14,05,22,11.40
2008,07,14,05,23,11.40
2008,07,14,05,24,11.40
2008,07,14,05,25,11.40
2008,07,14,05,26,11.40
2008,07,14,05,27,11.40
2008,07,14,05,28,11.40
2008,07,14,05,29,11.40
2008,07,14,05,30,11.40
2008,07,14,05,31,11.40
2008,07,14,05,32,11.40
2008,07,14,05,33,11.40
2008,07,14,05,34,11.40
2008,07,14,05,35,11.40
2008,07,14,05,36,11.40
2008,07,14,05,37,11.40
2008,07,14,05,38,11.30
2008,07,14,05,39,11.30
2008,07,14,05,40,11.30
2008,07,14,05,41,11.30
2008,07,14,05,42,11.30
2008,07,14,05,43,11.30
2008,07,14,05,44,11.20
2008,07,14,05,45,11.20
2008,07,14,05,46,11.20
2008,07,14,05,47,11.10
2008,07,14,05,48,11.10
2008,07,14,05,49,11.10
2008,07,14,05,50,11.10
2008,07,14,05,51,11.10
2008,07,14,05,52,11.10
2008,07,14,05,53,11.10
2008,07,14,05,54,11.10
2008,07,14,05,55,11.10
2008,07,14,05,56,11.10
2008,07,14,05,57,11.10
2008,07,14,05,58,11.10
2008,07,14,05,59,11.10
2008,07,14,06,00,11.10
2008,07,14,06,01,11.10
2008,07,14,06,02,11.10
2008,07,14,06,03,11.10
2008,07,14,06,04,11.10
2008,07,14,06,05,11.10
2008,07,14,06,06,11.10
2008,07,14,06,07,11.10
2008,07,14,06,08,11.10
2008,07,14,06,09,11.10
2008,07,14,06,10,11.10
2008,07,14,06,11,11.10
2008,07,14,06,12,11.10
2008,07,14,06,13,11.10
2008,07,14,06,14,11.10
2008,07,14,06,15,11.20
2008,07,14,06,16,11.20
2008,07,14,06,17,11.20
2008,07,14,06,18,11.20
2008,07,14,06,19,11.20
2008,07,14,06,20,11.20
2008,07,14,06,21,11.20
2008,07,14,06,22,11.20
2008,07,14,06,23,11.20
2008,07,14,06,24,11.20
2008,07,14,06,25,11.30
2008,07,14,06,26,11.30
2008,07,14,06,27,11.40
2008,07,14,06,28,11.40
2008,07,14,06,29,11.40
2008,07,14,06,30,11.60
2008,07,14,06,31,11.60
2008,07,14,06,32,11.70
2008,07,14,06,33,11.80
2008,07,14,06,34,11.80
2008,07,14,06,35,11.80
2008,07,14,06,36,11.80
2008,07,14,06,37,11.90
2008,07,14,06,38,11.90
2008,07,14,06,39,11.90
2008,07,14,06,40,12.00
2008,07,14,06,41,12.00
2008,07,14,06,42,12.00
2008,07,14,06,43,12.10
2008,07,14,06,44,12.10
2008,07,14,06,45,12.20
2008,07,14,06,46,12.20
2008,07,14,06,47,12.20
2008,07,14,06,48,12.30
2008,07,14,06,49,12.30
2008,07,14,06,50,12.40
2008,07,14,06,51,12.40
2008,07,14,06,52,12.40
2008,07,14,06,53,12.40
2008,07,14,06,54,12.50
2008,07,14,06,55,12.50
2008,07,14,06,56,12.50
2008,07,14,06,57,12.50
2008,07,14,06,58,12.50
2008,07,14,06,59,12.60
2008,07,14,07,00,12.60
2008,07,14,07,01,12.70
2008,07,14,07,02,12.70
2008,07,14,07,03,12.70
2008,07,14,07,04,12.80
2008,07,14,07,05,12.80
2008,07,14,07,06,12.80
2008,07,14,07,07,12.90
2008,07,14,07,08,12.90
2008,07,14,07,09,13.00
2008,07,14,07,10,13.00
2008,07,14,07,11,13.10
2008,07,14,07,12,13.10
2008,07,14,07,13,13.20
2008,07,14,07,14,13.30
2008,07,14,07,15,13.30
2008,07,14,07,16,13.30
2008,07,14,07,17,13.40
2008,07,14,07,18,13.40
2008,07,14,07,19,13.50
2008,07,14,07,20,13.50
2008,07,14,07,21,13.50
2008,07,14,07,22,13.60
2008,07,14,07,23,13.60
2008,07,14,07,24,13.70
2008,07,14,07,25,13.70
2008,07,14,07,26,13.70
2008,07,14,07,27,13.80
2008,07,14,07,28,13.90
2008,07,14,07,29,14.00
2008,07,14,07,30,14.10
2008,07,14,07,31,14.10
2008,07,14,07,32,14.00
2008,07,14,07,33,13.90
2008,07,14,07,34,13.80
2008,07,14,07,35,13.70
2008,07,14,07,36,13.70
2008,07,14,07,37,13.70
2008,07,14,07,38,13.70
2008,07,14,07,39,13.70
2008,07,14,07,40,13.70
2008,07,14,07,41,13.70
2008,07,14,07,42,13.80
2008,07,14,07,43,13.90
2008,07,14,07,44,13.90
2008,07,14,07,45,14.00
2008,07,14,07,46,14.10
2008,07,14,07,47,14.20
2008,07,14,07,48,14.20
2008,07,14,07,49,14.40
2008,07,14,07,50,14.40
2008,07,14,07,51,14.50
2008,07,14,07,52,14.50
2008,07,14,07,53,14.60
2008,07,14,07,54,14.70
2008,07,14,07,55,14.70
2008,07,14,07,56,14.80
2008,07,14,07,57,14.90
2008,07,14,07,58,15.00
2008,07,14,07,59,15.10
2008,07,14,08,00,15.20
2008,07,14,08,01,15.30
2008,07,14,08,02,15.30
2008,07,14,08,03,15.50
2008,07,14,08,04,15.50
2008,07,14,08,05,15.60
2008,07,14,08,06,15.60
2008,07,14,08,07,15.70
2008,07,14,08,08,15.70
2008,07,14,08,09,15.80
2008,07,14,08,10,15.80
2008,07,14,08,11,15.80
2008,07,14,08,12,15.90
2008,07,14,08,13,15.90
2008,07,14,08,14,15.90
2008,07,14,08,15,15.90
2008,07,14,08,16,16.00
2008,07,14,08,17,16.10
2008,07,14,08,18,16.10
2008,07,14,08,19,16.20
2008,07,14,08,28,16.30
2008,07,14,08,29,16.40
2008,07,14,08,40,16.70
2008,07,14,08,41,16.70
2008,07,14,08,42,16.80
2008,07,14,08,43,16.80
2008,07,14,08,44,16.90
2008,07,14,08,45,16.90
2008,07,14,08,46,17.00
2008,07,14,08,47,17.00
2008,07,14,08,48,17.10
2008,07,14,08,49,17.10
2008,07,14,08,50,17.10
2008,07,14,08,51,17.20
2008,07,14,08,52,17.30
2008,07,14,08,53,17.30
2008,07,14,08,54,17.30
2008,07,14,08,55,17.30
2008,07,14,08,56,17.30
2008,07,14,08,57,17.30
2008,07,14,08,58,17.30
2008,07,14,08,59,17.30
2008,07,14,09,00,17.30
2008,07,14,09,01,17.30
2008,07,14,09,02,17.20
2008,07,14,09,03,17.10
2008,07,14,09,04,17.00
2008,07,14,09,05,17.00
2008,07,14,09,06,17.10
2008,07,14,09,07,17.20
2008,07,14,09,08,17.20
2008,07,14,09,09,17.30
2008,07,14,09,10,17.30
2008,07,14,09,11,17.30
2008,07,14,09,12,17.40
2008,07,14,09,13,17.50
2008,07,14,09,14,17.50
2008,07,14,09,15,17.50
2008,07,14,09,16,17.50
2008,07,14,09,17,17.60
2008,07,14,09,18,17.70
2008,07,14,09,19,17.80
2008,07,14,09,20,17.90
2008,07,14,09,21,17.80
2008,07,14,09,22,17.70
2008,07,14,09,23,17.50
2008,07,14,09,24,17.50
2008,07,14,09,25,17.60
2008,07,14,09,26,17.60
2008,07,14,09,27,17.60
2008,07,14,09,28,17.60
2008,07,14,09,29,17.60
2008,07,14,09,30,17.60
2008,07,14,09,31,17.70
2008,07,14,09,32,17.80
2008,07,14,09,33,17.80
2008,07,14,09,34,17.70
2008,07,14,09,35,17.70
2008,07,14,09,36,17.80
2008,07,14,09,37,17.90
2008,07,14,09,38,17.90
2008,07,14,09,39,17.90
2008,07,14,09,40,17.90
2008,07,14,09,41,17.80
2008,07,14,09,42,17.70
2008,07,14,09,43,17.80
2008,07,14,09,44,17.80
2008,07,14,09,45,17.90
2008,07,14,09,46,17.90
2008,07,14,09,47,17.90
2008,07,14,09,48,17.90
2008,07,14,09,49,17.80
2008,07,14,09,50,17.70
2008,07,14,09,51,17.80
2008,07,14,09,52,17.70
2008,07,14,09,53,17.70
2008,07,14,09,54,17.50
2008,07,14,09,55,17.40
2008,07,14,09,56,17.30
2008,07,14,09,57,17.30
2008,07,14,09,58,17.20
2008,07,14,09,59,17.10
2008,07,14,10,00,17.20
2008,07,14,10,01,17.30
2008,07,14,10,02,17.40
2008,07,14,10,03,17.50
2008,07,14,10,04,17.60
2008,07,14,10,05,17.70
2008,07,14,10,06,17.80
2008,07,14,10,07,17.80
2008,07,14,10,08,17.80
2008,07,14,10,09,17.90
2008,07,14,10,10,17.90
2008,07,14,10,11,18.00
2008,07,14,10,12,18.10
2008,07,14,10,13,18.20
2008,07,14,10,14,18.20
2008,07,14,10,15,18.20
2008,07,14,10,16,18.20
2008,07,14,10,17,18.20
2008,07,14,10,18,18.20
2008,07,14,10,19,18.20
2008,07,14,10,20,18.20
2008,07,14,10,21,18.20
2008,07,14,10,22,18.20
2008,07,14,10,23,18.20
2008,07,14,10,24,18.30
2008,07,14,10,25,18.40
2008,07,14,10,26,18.50
2008,07,14,10,27,18.40
2008,07,14,10,28,18.30
2008,07,14,10,29,18.30
2008,07,14,10,30,18.20
2008,07,14,10,31,18.10
2008,07,14,10,32,18.10
2008,07,14,10,33,18.20
2008,07,14,10,34,18.20
2008,07,14,10,35,18.10
2008,07,14,10,36,17.90
2008,07,14,10,37,17.90
2008,07,14,10,38,18.00
2008,07,14,10,39,18.10
2008,07,14,10,40,18.20
2008,07,14,10,41,18.30
2008,07,14,10,42,18.30
2008,07,14,10,43,18.30
2008,07,14,10,44,18.40
2008,07,14,10,45,18.30
2008,07,14,10,46,18.30
2008,07,14,10,47,18.20
2008,07,14,10,48,18.20
2008,07,14,10,49,18.20
2008,07,14,10,50,18.20
2008,07,14,10,51,18.20
2008,07,14,10,52,18.30
2008,07,14,10,53,18.30
2008,07,14,10,54,18.20
2008,07,14,10,55,18.20
2008,07,14,10,56,18.10
2008,07,14,10,57,18.10
2008,07,14,10,58,18.10
2008,07,14,10,59,18.10
2008,07,14,11,00,18.00
2008,07,14,11,01,18.00
2008,07,14,11,02,17.90
2008,07,14,11,03,18.00
2008,07,14,11,04,18.20
2008,07,14,11,05,18.20
2008,07,14,11,06,18.20
2008,07,14,11,07,18.20
2008,07,14,11,08,18.20
2008,07,14,11,09,18.20
2008,07,14,11,10,18.30
2008,07,14,11,11,18.30
2008,07,14,11,12,18.30
2008,07,14,11,13,18.20
2008,07,14,11,14,18.10
2008,07,14,11,15,18.10
2008,07,14,11,16,18.20
2008,07,14,11,17,18.20
2008,07,14,11,18,18.30
2008,07,14,11,19,18.40
2008,07,14,11,20,18.40
2008,07,14,11,21,18.40
2008,07,14,11,22,18.40
2008,07,14,11,23,18.40
2008,07,14,11,24,18.30
2008,07,14,11,25,18.30
2008,07,14,11,26,18.30
2008,07,14,11,27,18.20
2008,07,14,11,28,18.20
2008,07,14,11,29,18.20
2008,07,14,11,30,18.10
2008,07,14,11,31,18.10
2008,07,14,11,32,18.20
2008,07,14,11,33,18.10
2008,07,14,11,34,18.10
2008,07,14,11,35,18.20
2008,07,14,11,36,18.20
2008,07,14,11,37,18.20
2008,07,14,11,38,18.40
2008,07,14,11,39,18.50
2008,07,14,11,40,18.60
2008,07,14,11,41,18.70
2008,07,14,11,42,18.90
2008,07,14,11,43,18.90
2008,07,14,11,44,18.90
2008,07,14,11,45,18.80
2008,07,14,11,46,18.90
2008,07,14,11,47,18.90
2008,07,14,11,48,18.90
2008,07,14,11,49,19.10
2008,07,14,11,50,19.10
2008,07,14,11,51,19.30
2008,07,14,11,52,19.40
2008,07,14,11,53,19.40
2008,07,14,11,54,19.40
2008,07,14,11,55,19.30
2008,07,14,11,56,19.30
2008,07,14,11,57,19.30
2008,07,14,11,58,19.40
2008,07,14,11,59,19.50
2008,07,14,12,00,19.70
2008,07,14,12,01,19.90
2008,07,14,12,02,20.00
2008,07,14,12,03,20.10
2008,07,14,12,04,20.20
2008,07,14,12,05,20.20
2008,07,14,12,06,20.20
2008,07,14,12,07,20.20
2008,07,14,12,08,20.20
2008,07,14,12,09,20.20
2008,07,14,12,10,20.00
2008,07,14,12,11,19.90
2008,07,14,12,12,19.80
2008,07,14,12,13,19.80
2008,07,14,12,14,19.70
2008,07,14,12,15,19.70
2008,07,14,12,16,19.70
2008,07,14,12,17,19.60
2008,07,14,12,18,19.50
2008,07,14,12,19,19.40
2008,07,14,12,20,19.20
2008,07,14,12,21,19.00
2008,07,14,12,22,18.80
2008,07,14,12,23,18.70
2008,07,14,12,24,18.60
2008,07,14,12,25,18.50
2008,07,14,12,26,18.60
2008,07,14,12,27,18.70
2008,07,14,12,28,18.80
2008,07,14,12,29,18.90
2008,07,14,12,30,18.90
2008,07,14,12,31,18.90
2008,07,14,12,32,18.90
2008,07,14,12,33,18.80
2008,07,14,12,34,18.80
2008,07,14,12,35,18.90
2008,07,14,12,36,19.00
2008,07,14,12,37,19.10
2008,07,14,12,38,19.20
2008,07,14,12,39,19.40
2008,07,14,12,40,19.60
2008,07,14,12,41,19.80
2008,07,14,12,42,19.90
2008,07,14,12,43,20.00
2008,07,14,12,44,20.10
2008,07,14,12,45,20.20
2008,07,14,12,46,20.20
2008,07,14,12,47,20.20
2008,07,14,12,48,20.20
2008,07,14,12,49,20.00
2008,07,14,12,50,19.90
2008,07,14,12,51,19.90
2008,07,14,12,52,19.90
2008,07,14,12,53,19.90
2008,07,14,12,54,19.80
2008,07,14,12,55,19.70
2008,07,14,12,56,19.60
2008,07,14,12,57,19.50
2008,07,14,12,58,19.50
2008,07,14,12,59,19.50
2008,07,14,13,00,19.70
2008,07,14,13,01,19.90
2008,07,14,13,02,19.90
2008,07,14,13,03,20.00
2008,07,14,13,04,20.10
2008,07,14,13,05,20.20
2008,07,14,13,06,20.20
2008,07,14,13,07,20.20
2008,07,14,13,08,20.20
2008,07,14,13,09,20.20
2008,07,14,13,10,20.20
2008,07,14,13,11,20.40
2008,07,14,13,12,20.50
2008,07,14,13,13,20.60
2008,07,14,13,14,20.60
2008,07,14,13,15,20.60
2008,07,14,13,16,20.70
2008,07,14,13,17,20.70
2008,07,14,13,18,20.80
2008,07,14,13,19,20.90
2008,07,14,13,20,21.00
2008,07,14,13,21,21.20
2008,07,14,13,22,21.30
2008,07,14,13,23,21.40
2008,07,14,13,24,21.50
2008,07,14,13,25,21.60
2008,07,14,13,26,21.80
2008,07,14,13,27,22.00
2008,07,14,13,28,22.10
2008,07,14,13,29,22.30
2008,07,14,13,30,22.30
2008,07,14,13,31,22.50
2008,07,14,13,32,22.60
2008,07,14,13,33,22.70
2008,07,14,13,34,22.80
2008,07,14,13,35,22.90
2008,07,14,13,36,23.00
2008,07,14,13,37,23.20
2008,07,14,13,38,23.30
2008,07,14,13,39,23.30
2008,07,14,13,40,23.20
2008,07,14,13,41,23.20
2008,07,14,13,42,23.20
2008,07,14,13,43,23.20
2008,07,14,13,44,23.10
2008,07,14,13,45,23.00
2008,07,14,13,46,22.90
2008,07,14,13,47,23.00
2008,07,14,13,48,23.10
2008,07,14,13,49,23.10
2008,07,14,13,50,23.10
2008,07,14,13,51,23.10
2008,07,14,13,52,23.10
2008,07,14,13,53,23.20
2008,07,14,13,54,23.10
2008,07,14,13,55,23.10
2008,07,14,13,56,22.90
2008,07,14,13,57,22.90
2008,07,14,13,58,22.80
2008,07,14,13,59,22.60
2008,07,14,14,00,22.50
2008,07,14,14,01,22.50
2008,07,14,14,02,22.50
2008,07,14,14,03,22.50
2008,07,14,14,04,22.40
2008,07,14,14,05,22.40
2008,07,14,14,06,22.30
2008,07,14,14,07,22.30
2008,07,14,14,08,22.10
2008,07,14,14,09,22.00
2008,07,14,14,10,21.80
2008,07,14,14,11,21.70
2008,07,14,14,12,21.60
2008,07,14,14,13,21.60
2008,07,14,14,14,21.60
2008,07,14,14,15,21.60
2008,07,14,14,16,21.60
2008,07,14,14,17,21.60
2008,07,14,14,18,21.60
2008,07,14,14,19,21.70
2008,07,14,14,20,21.70
2008,07,14,14,21,21.70
2008,07,14,14,22,21.70
2008,07,14,14,23,21.60
2008,07,14,14,24,21.70
2008,07,14,14,25,21.70
2008,07,14,14,26,21.70
2008,07,14,14,27,21.90
2008,07,14,14,28,22.00
2008,07,14,14,29,22.20
2008,07,14,14,30,22.40
2008,07,14,14,31,22.50
2008,07,14,14,32,22.60
2008,07,14,14,33,22.80
2008,07,14,14,34,22.80
2008,07,14,14,35,22.80
2008,07,14,14,36,22.90
2008,07,14,14,37,22.90
2008,07,14,14,38,23.00
2008,07,14,14,39,23.00
2008,07,14,14,40,22.90
2008,07,14,14,41,22.80
2008,07,14,14,42,22.80
2008,07,14,14,43,22.70
2008,07,14,14,44,22.70
2008,07,14,14,45,22.70
2008,07,14,14,46,22.70
2008,07,14,14,47,22.80
2008,07,14,14,48,22.80
2008,07,14,14,49,22.80
2008,07,14,14,50,22.80
2008,07,14,14,51,22.90
2008,07,14,14,52,22.70
2008,07,14,14,53,22.60
2008,07,14,14,54,22.50
2008,07,14,14,55,22.40
2008,07,14,14,56,22.30
2008,07,14,14,57,22.20
2008,07,14,14,58,22.20
2008,07,14,14,59,22.10
2008,07,14,15,00,22.00
2008,07,14,15,01,22.00
2008,07,14,15,02,22.00
2008,07,14,15,03,22.00
2008,07,14,15,04,22.00
2008,07,14,15,05,21.90
2008,07,14,15,06,21.90
2008,07,14,15,07,21.90
2008,07,14,15,08,21.90
2008,07,14,15,09,21.80
2008,07,14,15,10,21.70
2008,07,14,15,11,21.70
2008,07,14,15,12,21.70
2008,07,14,15,13,21.70
2008,07,14,15,14,21.70
2008,07,14,15,15,21.70
2008,07,14,15,16,21.60
2008,07,14,15,17,21.60
2008,07,14,15,18,21.60
2008,07,14,15,19,21.60
2008,07,14,15,20,21.60
2008,07,14,15,21,21.60
2008,07,14,15,22,21.60
2008,07,14,15,23,21.60
2008,07,14,15,24,21.60
2008,07,14,15,25,21.60
2008,07,14,15,26,21.60
2008,07,14,15,27,21.60
2008,07,14,15,28,21.60
2008,07,14,15,29,21.60
2008,07,14,15,30,21.60
2008,07,14,15,31,21.60
2008,07,14,15,32,21.60
2008,07,14,15,33,21.60
2008,07,14,15,34,21.60
2008,07,14,15,35,21.60
2008,07,14,15,36,21.60
2008,07,14,15,37,21.60
2008,07,14,15,38,21.60
2008,07,14,15,39,21.60
2008,07,14,15,40,21.60
2008,07,14,15,41,21.60
2008,07,14,15,42,21.60
2008,07,14,15,43,21.70
2008,07,14,15,44,21.70
2008,07,14,15,45,21.80
2008,07,14,15,46,21.80
2008,07,14,15,47,21.90
2008,07,14,15,48,21.90
2008,07,14,15,49,22.00
2008,07,14,15,50,22.00
2008,07,14,15,51,22.10
2008,07,14,15,52,22.10
2008,07,14,15,53,22.20
2008,07,14,15,54,22.30
2008,07,14,15,55,22.40
2008,07,14,15,56,22.40
2008,07,14,15,57,22.50
2008,07,14,15,58,22.60
2008,07,14,15,59,22.60
2008,07,14,16,00,22.70
2008,07,14,16,01,22.80
2008,07,14,16,02,22.80
2008,07,14,16,03,22.90
2008,07,14,16,04,22.90
2008,07,14,16,05,22.90
2008,07,14,16,06,23.00
2008,07,14,16,07,23.10
2008,07,14,16,08,23.20
2008,07,14,16,09,23.20
2008,07,14,16,10,23.30
2008,07,14,16,11,23.30
2008,07,14,16,12,23.30
2008,07,14,16,13,23.30
2008,07,14,16,14,23.30
2008,07,14,16,15,23.30
2008,07,14,16,16,23.30
2008,07,14,16,17,23.40
2008,07,14,16,18,23.50
2008,07,14,16,19,23.70
2008,07,14,16,20,23.70
2008,07,14,16,21,23.80
2008,07,14,16,22,23.80
2008,07,14,16,23,23.90
2008,07,14,16,24,24.00
2008,07,14,16,25,24.10
2008,07,14,16,26,24.10
2008,07,14,16,27,24.10
2008,07,14,16,28,24.20
2008,07,14,16,29,24.20
2008,07,14,16,30,24.30
2008,07,14,16,31,24.40
2008,07,14,16,32,24.50
2008,07,14,16,33,24.50
2008,07,14,16,34,24.60
2008,07,14,16,35,24.60
2008,07,14,16,36,24.30
2008,07,14,16,37,23.80
2008,07,14,16,38,23.30
2008,07,14,16,39,22.90
2008,07,14,16,40,22.70
2008,07,14,16,41,22.50
2008,07,14,16,42,22.30
2008,07,14,16,43,22.20
2008,07,14,16,44,22.00
2008,07,14,16,45,21.90
2008,07,14,16,46,21.90
2008,07,14,16,47,22.00
2008,07,14,16,48,22.00
2008,07,14,16,49,22.10
2008,07,14,16,50,22.10
2008,07,14,16,51,22.10
2008,07,14,16,52,22.10
2008,07,14,16,53,22.20
2008,07,14,16,54,22.20
2008,07,14,16,55,22.20
2008,07,14,16,56,22.20
2008,07,14,16,57,22.20
2008,07,14,16,58,22.20
2008,07,14,16,59,22.20
2008,07,14,17,00,22.20
2008,07,14,17,01,22.20
2008,07,14,17,02,22.20
2008,07,14,17,03,22.30
2008,07,14,17,04,22.30
2008,07,14,17,05,22.40
2008,07,14,17,06,22.50
2008,07,14,17,07,22.60
2008,07,14,17,08,22.70
2008,07,14,17,09,22.70
2008,07,14,17,10,22.80
2008,07,14,17,11,22.90
2008,07,14,17,12,22.90
2008,07,14,17,13,22.80
2008,07,14,17,14,22.70
2008,07,14,17,15,22.60
2008,07,14,17,16,22.60
2008,07,14,17,17,22.50
2008,07,14,17,18,22.30
2008,07,14,17,19,22.20
2008,07,14,17,20,22.10
2008,07,14,17,21,22.00
2008,07,14,17,22,21.80
2008,07,14,17,23,21.50
2008,07,14,17,24,21.20
2008,07,14,17,25,21.10
2008,07,14,17,26,21.10
2008,07,14,17,27,21.00
2008,07,14,17,28,21.00
2008,07,14,17,29,21.00
2008,07,14,17,30,21.10
2008,07,14,17,31,21.10
2008,07,14,17,32,21.10
2008,07,14,17,33,21.20
2008,07,14,17,34,21.20
2008,07,14,17,35,21.00
2008,07,14,17,36,20.90
2008,07,14,17,37,20.80
2008,07,14,17,38,20.60
2008,07,14,17,39,20.50
2008,07,14,17,40,20.40
2008,07,14,17,41,20.40
2008,07,14,17,42,20.40
2008,07,14,17,43,20.50
2008,07,14,17,44,20.60
2008,07,14,17,45,20.70
2008,07,14,17,46,20.80
2008,07,14,17,47,20.90
2008,07,14,17,48,21.00
2008,07,14,17,49,21.10
2008,07,14,17,50,21.20
2008,07,14,17,51,21.10
2008,07,14,17,52,21.10
2008,07,14,17,53,21.00
2008,07,14,17,54,21.00
2008,07,14,17,55,20.90
2008,07,14,17,56,20.90
2008,07,14,17,57,20.90
2008,07,14,17,58,21.00
2008,07,14,17,59,20.80
2008,07,14,18,00,20.50
2008,07,14,18,01,20.30
2008,07,14,18,02,20.20
2008,07,14,18,03,20.10
2008,07,14,18,04,20.00
2008,07,14,18,05,19.90
2008,07,14,18,06,19.90
2008,07,14,18,07,19.90
2008,07,14,18,08,20.00
2008,07,14,18,09,20.10
2008,07,14,18,10,20.20
2008,07,14,18,11,20.20
2008,07,14,18,12,20.30
2008,07,14,18,13,20.30
2008,07,14,18,14,20.30
2008,07,14,18,15,20.40
2008,07,14,18,16,20.40
2008,07,14,18,17,20.40
2008,07,14,18,18,20.40
2008,07,14,18,19,20.40
2008,07,14,18,20,20.40
2008,07,14,18,21,20.40
2008,07,14,18,22,20.50
2008,07,14,18,23,20.40
2008,07,14,18,24,20.40
2008,07,14,18,25,20.30
2008,07,14,18,26,20.40
2008,07,14,18,27,20.40
2008,07,14,18,28,20.40
2008,07,14,18,29,20.40
2008,07,14,18,30,20.30
2008,07,14,18,31,20.30
2008,07,14,18,32,20.30
2008,07,14,18,33,20.30
2008,07,14,18,34,20.30
2008,07,14,18,35,20.30
2008,07,14,18,36,20.30
2008,07,14,18,37,20.20
2008,07,14,18,38,20.20
2008,07,14,18,39,20.00
2008,07,14,18,40,19.90
2008,07,14,18,41,19.80
2008,07,14,18,42,19.70
2008,07,14,18,43,19.60
2008,07,14,18,44,19.60
2008,07,14,18,45,19.50
2008,07,14,18,46,19.50
2008,07,14,18,47,19.50
2008,07,14,18,48,19.50
2008,07,14,18,49,19.40
2008,07,14,18,50,19.40
2008,07,14,18,51,19.40
2008,07,14,18,52,19.40
2008,07,14,18,53,19.50
2008,07,14,18,54,19.60
2008,07,14,18,55,19.60
2008,07,14,18,56,19.80
2008,07,14,18,57,19.90
2008,07,14,18,58,19.90
2008,07,14,18,59,19.90
2008,07,14,19,00,19.90
2008,07,14,19,01,19.90
2008,07,14,19,02,20.00
2008,07,14,19,03,20.10
2008,07,14,19,04,20.20
2008,07,14,19,05,20.20
2008,07,14,19,06,20.20
2008,07,14,19,07,20.20
2008,07,14,19,08,20.20
2008,07,14,19,09,19.90
2008,07,14,19,10,19.80
2008,07,14,19,11,19.70
2008,07,14,19,12,19.70
2008,07,14,19,13,19.70
2008,07,14,19,14,19.60
2008,07,14,19,15,19.30
2008,07,14,19,16,18.90
2008,07,14,19,17,18.70
2008,07,14,19,18,18.50
2008,07,14,19,19,18.30
2008,07,14,19,20,18.30
2008,07,14,19,21,18.20
2008,07,14,19,22,18.20
2008,07,14,19,23,18.20
2008,07,14,19,24,18.20
2008,07,14,19,25,18.20
2008,07,14,19,26,18.30
2008,07,14,19,27,18.30
2008,07,14,19,28,18.40
2008,07,14,19,29,18.50
2008,07,14,19,30,18.50
2008,07,14,19,31,18.60
2008,07,14,19,32,18.70
2008,07,14,19,33,18.60
2008,07,14,19,34,18.40
2008,07,14,19,35,18.40
2008,07,14,19,36,18.30
2008,07,14,19,37,18.30
2008,07,14,19,38,18.30
2008,07,14,19,39,18.40
2008,07,14,19,40,18.40
2008,07,14,19,41,18.50
2008,07,14,19,42,18.50
2008,07,14,19,43,18.50
2008,07,14,19,44,18.50
2008,07,14,19,45,18.60
2008,07,14,19,46,18.60
2008,07,14,19,47,18.60
2008,07,14,19,48,18.60
2008,07,14,19,49,18.60
2008,07,14,19,50,18.50
2008,07,14,19,51,18.50
2008,07,14,19,52,18.50
2008,07,14,19,53,18.50
2008,07,14,19,54,18.50
2008,07,14,19,55,18.50
2008,07,14,19,56,18.60
2008,07,14,19,57,18.70
2008,07,14,19,58,18.80
2008,07,14,19,59,18.90
2008,07,14,20,00,19.00
2008,07,14,20,01,19.10
2008,07,14,20,02,19.20
2008,07,14,20,03,19.30
2008,07,14,20,04,19.40
2008,07,14,20,05,19.50
2008,07,14,20,06,19.50
2008,07,14,20,07,19.60
2008,07,14,20,08,19.70
2008,07,14,20,09,19.80
2008,07,14,20,10,19.80
2008,07,14,20,11,19.80
2008,07,14,20,12,19.90
2008,07,14,20,13,19.90
2008,07,14,20,14,19.80
2008,07,14,20,15,19.70
2008,07,14,20,16,19.60
2008,07,14,20,17,19.50
2008,07,14,20,18,19.40
2008,07,14,20,19,19.30
2008,07,14,20,20,19.20
2008,07,14,20,21,19.10
2008,07,14,20,22,19.10